Theta_e
349 347 348 351 352 352 352 356 357 357 358 357 358 358 356 355 357 360 362 364 366 368 368 367 366 367 367 365 363 363 363 363 363 362 361 360 358 357 357 357 358 356 355 355 353 351 349 347 347 346 346 346 345 344 343 342 342 341 340 339 339 340 339
347 344 344 348 351 353 354 355 358 359 357 358 359 358 357 356 358 361 362 364 367 368 369 369 368 368 368 366 365 364 364 364 363 362 361 360 359 358 357 357 358 356 354 353 352 351 350 348 347 346 346 346 345 343 343 343 342 340 339 339 339 340 340
345 345 344 347 351 355 355 354 357 358 358 358 359 359 359 358 359 361 361 365 368 368 369 370 370 369 368 368 367 366 365 365 364 363 361 361 360 359 358 358 358 356 354 354 353 352 351 349 348 346 346 346 344 343 343 343 342 340 339 340 340 340 340
344 348 347 348 352 356 356 354 355 358 358 357 359 361 361 360 361 362 362 366 368 369 370 370 371 370 369 369 368 367 367 366 365 364 362 361 360 360 359 358 358 356 354 354 354 353 351 349 348 347 346 345 343 342 343 342 342 341 340 340 341 340 339
343 348 350 351 352 356 356 354 354 357 358 356 359 362 363 362 363 363 364 366 367 368 369 369 369 370 370 369 368 368 368 368 367 365 363 362 361 361 361 359 358 356 354 354 354 353 352 349 348 347 345 343 342 343 343 342 342 341 340 340 340 340 339
340 345 350 351 352 356 356 354 354 357 356 356 359 362 362 362 363 363 363 365 365 366 368 367 368 369 370 369 367 367 368 369 369 367 365 363 362 362 361 360 359 356 354 354 355 354 352 349 348 346 344 342 342 343 343 343 342 341 341 340 340 339 339
338 345 350 352 352 354 355 355 355 357 357 356 357 360 361 361 363 361 362 363 363 364 365 365 365 367 370 369 367 368 368 369 370 368 366 364 363 363 363 362 360 358 355 356 356 354 351 348 346 346 344 342 342 342 343 343 342 341 341 340 340 339 339
338 343 349 353 352 350 354 356 357 357 358 354 354 358 359 359 360 357 358 360 360 360 362 361 361 365 369 369 368 368 368 368 370 369 367 365 364 364 364 363 361 359 357 357 356 353 350 348 345 345 344 342 342 342 342 342 342 341 341 340 340 340 340
340 344 350 353 348 347 352 356 358 359 360 357 353 356 359 357 355 353 354 357 357 357 358 357 358 363 368 370 368 368 368 368 370 370 368 366 364 364 363 361 361 359 358 358 355 352 351 348 345 344 343 343 343 343 343 343 343 342 342 341 340 340 340
342 346 353 355 348 347 350 353 359 362 363 363 358 356 359 356 352 351 351 353 355 354 355 355 355 360 368 370 368 368 369 369 369 369 368 367 364 363 360 359 360 360 358 357 354 352 351 348 345 344 343 343 344 343 343 343 343 343 342 340 339 340 341
348 349 355 358 353 352 351 354 364 368 369 370 362 357 359 356 351 350 350 351 353 353 353 353 353 357 366 369 367 368 369 369 368 369 368 365 363 362 359 356 359 360 358 356 354 352 351 348 346 344 344 345 344 343 343 343 343 343 342 339 338 339 341
351 353 359 361 357 354 356 363 369 372 375 372 362 358 360 358 352 349 350 352 352 353 353 353 353 355 363 367 367 367 369 369 368 368 367 364 362 360 357 355 358 359 357 355 353 352 351 348 345 345 347 345 342 342 343 343 342 342 340 337 338 339 340
354 356 362 363 358 357 362 369 370 371 372 369 362 359 361 360 354 352 352 353 351 352 354 354 354 353 359 366 367 367 369 369 368 369 367 363 361 360 358 356 355 355 356 354 352 351 350 347 345 346 348 343 338 342 345 342 339 340 338 336 337 339 340
360 359 363 362 359 360 364 367 368 370 367 365 363 362 362 361 358 355 355 354 353 352 352 355 356 354 357 363 367 368 370 370 370 369 367 363 361 361 359 357 352 350 353 354 352 350 349 347 346 347 347 344 342 344 346 340 337 339 339 336 337 339 340
353 356 361 362 360 362 364 365 367 368 366 366 366 364 363 362 361 359 358 357 356 353 351 355 357 357 358 363 367 369 370 372 371 369 367 364 362 361 360 359 354 348 349 354 353 349 348 348 348 348 346 345 344 344 341 338 337 339 337 334 337 340 340
338 343 352 360 362 363 363 365 368 369 369 368 367 365 364 363 362 361 360 360 358 354 353 355 359 360 360 363 367 370 371 372 370 369 368 365 363 362 361 359 356 351 350 354 353 349 347 348 348 346 344 344 344 342 338 336 335 333 330 332 338 341 340
335 334 338 349 358 363 365 366 368 370 370 369 367 366 365 364 363 362 361 361 360 358 355 356 361 363 362 364 369 371 372 371 369 368 367 365 364 362 361 359 358 355 353 353 351 349 347 346 346 346 344 344 343 340 337 336 334 330 328 332 338 341 340
335 334 336 339 349 363 368 367 369 372 369 366 367 367 366 366 365 362 361 361 361 359 357 358 364 365 365 367 370 372 372 370 369 368 366 365 363 362 361 360 358 356 354 352 351 349 348 347 347 345 342 341 339 336 337 336 334 332 329 330 336 340 340
335 333 336 339 346 361 368 365 367 371 369 366 366 368 367 367 365 363 362 361 361 360 358 360 365 367 368 370 371 372 372 369 369 368 365 364 362 360 360 359 357 356 355 353 352 351 351 349 346 343 340 340 338 335 336 335 334 333 330 327 332 338 338
335 333 335 336 338 354 367 368 367 369 371 369 366 366 367 366 366 364 362 362 362 361 360 361 366 369 371 372 372 372 371 368 368 368 365 363 361 359 358 358 357 356 354 354 353 353 352 349 345 343 340 339 337 335 335 335 335 334 331 327 329 333 334
337 336 336 336 337 353 368 371 367 368 371 368 364 365 366 365 366 364 362 362 363 363 362 363 367 370 373 372 371 371 370 368 368 367 365 362 360 358 357 356 357 356 354 353 352 352 350 347 344 343 340 338 337 336 336 337 336 336 335 331 329 330 331
334 335 334 337 348 362 369 369 366 369 370 366 363 365 365 364 365 363 360 363 365 365 364 365 368 372 373 372 371 371 370 368 367 366 364 360 359 358 357 356 356 356 354 352 351 350 348 346 344 342 340 338 338 338 338 338 337 338 337 335 332 330 331
331 335 334 335 345 354 361 365 367 368 369 365 363 364 364 364 364 362 361 364 365 366 366 366 369 372 373 373 372 372 371 368 367 366 363 360 359 358 357 356 355 354 354 352 350 349 347 345 343 341 341 339 339 339 339 338 338 338 338 337 334 332 334
329 331 332 334 340 347 358 366 366 366 367 363 361 363 364 363 363 363 363 365 366 367 367 368 369 372 373 374 373 372 371 369 367 365 363 361 359 357 356 355 353 353 353 351 350 349 347 344 342 341 340 339 338 338 338 338 339 339 338 337 335 334 338
331 332 332 334 342 354 363 366 364 364 366 363 362 364 364 363 364 364 364 365 367 367 368 369 370 372 373 373 372 371 370 368 366 365 364 361 359 356 354 355 353 352 351 350 349 349 347 345 343 341 339 338 337 337 338 338 339 339 338 338 336 335 338
335 336 335 337 348 360 365 364 364 366 364 361 363 365 364 362 364 364 363 365 367 366 368 369 369 371 372 372 371 370 368 366 366 364 363 361 358 354 353 353 352 350 350 350 348 347 346 344 342 340 338 337 336 336 336 337 337 338 338 338 337 335 337
340 339 337 341 353 362 363 362 363 364 361 362 365 364 362 362 363 364 364 365 366 366 366 368 370 371 371 370 370 368 366 365 364 363 362 360 358 354 352 352 350 349 349 348 346 345 343 341 340 339 337 336 335 334 334 334 335 337 337 337 337 335 337
343 342 344 350 357 361 361 361 362 362 362 363 363 360 360 362 364 365 365 364 364 365 367 369 371 370 370 369 367 365 364 363 362 362 361 358 356 354 352 352 350 349 348 346 344 343 342 340 340 339 338 337 336 335 336 335 336 338 338 337 337 333 333
348 350 354 357 358 359 359 360 359 359 359 359 358 360 364 368 369 369 368 367 368 369 369 370 370 369 368 367 365 363 362 361 361 360 358 356 354 353 352 351 350 349 347 345 343 342 341 340 340 340 340 340 339 338 339 338 338 339 338 337 335 331 331
356 357 358 357 356 357 358 359 360 361 361 362 364 367 369 370 371 371 371 371 369 368 369 369 368 367 365 364 363 362 360 360 359 359 357 355 353 352 352 351 349 348 345 343 342 342 341 341 341 341 341 341 341 341 341 339 338 339 338 337 334 332 332
356 355 355 355 357 360 360 361 363 364 364 365 366 367 368 369 371 370 370 368 365 365 365 365 365 364 362 361 361 360 358 358 357 356 355 353 352 352 352 350 348 347 344 343 342 342 342 343 343 342 342 342 342 341 340 339 338 337 337 335 333 332 332
354 354 354 356 358 360 361 362 363 363 364 362 360 361 364 366 367 367 366 363 362 362 362 362 361 361 359 359 358 357 356 355 354 353 352 352 351 352 351 348 347 345 344 343 342 342 343 344 344 343 343 342 342 340 339 338 336 334 333 332 330 331 331
351 352 354 354 354 354 354 355 355 356 358 358 357 359 361 363 364 364 362 361 361 360 360 360 359 358 358 357 356 354 354 353 352 351 351 351 350 350 349 347 345 344 343 343 343 343 344 343 343 343 342 341 341 340 338 338 336 332 330 329 330 330 330
354 354 353 351 350 350 351 351 351 352 354 355 354 354 355 356 357 358 358 357 358 358 358 358 357 357 357 356 354 352 351 351 350 350 350 349 347 347 347 345 344 343 343 342 343 343 344 342 342 342 342 341 340 339 339 338 337 333 330 330 330 329 328
353 355 356 356 355 355 355 355 355 354 353 352 351 350 350 350 351 353 354 355 356 358 358 357 357 357 355 353 352 350 349 349 348 348 348 346 343 341 341 341 342 343 341 340 340 341 342 342 342 341 341 340 339 338 339 338 337 336 333 332 330 328 327
348 350 353 354 354 355 357 357 356 355 354 352 351 350 350 349 350 351 352 354 355 357 357 356 356 354 352 350 350 349 348 347 346 346 346 345 341 337 335 336 338 341 339 337 337 338 339 340 340 339 338 339 338 337 337 336 336 336 334 332 330 328 327
345 346 348 350 351 353 354 354 354 354 353 351 350 349 349 349 349 350 352 354 355 356 355 355 354 352 350 348 347 347 347 346 346 346 345 344 342 340 336 334 334 335 335 335 335 336 336 337 337 337 337 337 337 337 335 334 334 333 331 330 328 327 327
345 345 347 349 350 352 352 352 353 352 351 351 350 349 349 349 350 351 353 354 354 354 354 354 352 349 347 347 346 346 346 347 346 346 345 343 342 341 340 338 334 331 330 331 332 333 333 333 334 336 336 335 335 334 332 331 330 328 327 327 327 326 326
Wind_Speed
13 14 15 14 17 19 20 21 21 23 27 29 30 32 33 32 31 29 29 30 30 29 29 28 27 26 26 26 25 24 23 22 21 20 20 20 18 17 17 16 15 14 14 14 13 13 13 12 12 13 12 12 11 11 10 10 9 8 7 7 6 6 6
15 14 14 16 19 20 21 21 22 25 28 29 31 32 33 32 32 31 29 29 30 30 29 29 28 27 26 26 25 25 25 23 22 21 20 20 19 18 18 17 16 15 14 14 13 13 13 12 12 13 12 12 12 12 12 11 10 9 8 8 8 7 6
13 13 15 18 20 20 21 21 22 26 29 30 32 33 33 33 33 32 31 30 31 30 30 30 29 28 26 26 26 26 26 25 24 23 22 21 20 19 18 17 16 16 15 14 13 13 13 12 13 13 13 12 12 12 13 12 11 10 9 8 8 8 8
13 16 18 20 20 20 20 21 22 26 30 32 34 34 34 34 34 33 32 31 32 31 31 31 30 28 27 27 26 26 26 26 25 24 23 22 21 20 19 18 17 16 15 15 14 13 14 14 14 14 14 13 12 13 13 12 12 11 10 9 9 9 9
14 16 17 18 20 19 18 20 22 26 31 33 34 34 34 34 33 33 32 31 32 32 31 31 29 28 27 27 27 25 25 26 25 25 24 22 21 20 19 19 18 18 16 16 15 15 16 16 16 16 16 15 13 14 14 14 13 12 11 11 10 10 10
13 13 14 16 18 18 20 21 24 29 32 33 34 33 33 34 33 33 32 31 31 31 30 30 29 28 27 27 27 25 25 26 25 25 24 23 22 21 21 20 20 19 18 17 17 18 19 19 19 19 18 18 17 17 17 16 15 14 14 14 13 12 11
12 12 14 16 16 18 20 21 23 29 32 32 33 33 33 34 33 33 32 31 32 31 31 31 30 28 28 28 27 26 26 26 26 26 24 23 23 23 22 21 20 19 18 18 19 19 20 21 20 20 20 20 19 20 20 20 20 18 18 18 16 15 13
14 13 14 16 15 16 18 19 21 25 29 31 31 32 34 34 33 33 32 32 32 32 32 32 31 30 29 29 28 27 27 26 26 25 24 24 24 24 23 21 20 19 19 21 22 22 23 23 22 22 21 21 20 21 22 24 23 20 19 18 17 16 15
14 15 15 15 14 14 15 17 18 20 25 28 30 31 33 33 33 33 33 32 32 33 33 32 32 31 30 29 29 28 27 27 26 26 25 25 25 25 23 21 21 22 24 24 24 24 25 25 25 24 24 23 22 23 22 22 22 20 19 19 18 17 16
8 13 13 14 13 13 14 16 16 17 18 20 24 28 31 32 32 32 33 32 32 33 34 33 31 31 31 30 29 28 28 27 27 26 27 26 26 25 24 23 24 26 26 25 24 25 27 27 27 27 26 24 23 23 22 22 21 20 20 20 19 18 17
6 9 10 12 12 12 14 15 14 13 13 15 20 26 29 30 31 32 32 32 32 32 33 32 31 31 31 30 30 29 29 29 28 28 28 27 26 27 28 28 27 27 27 26 25 26 28 28 29 29 28 26 25 24 24 24 23 22 22 21 20 19 18
9 8 9 12 12 12 12 11 12 13 11 14 22 26 26 28 31 32 31 32 32 31 31 31 31 31 31 30 30 30 30 30 29 29 30 29 27 29 30 29 27 27 28 28 28 27 28 28 29 29 29 28 27 25 26 25 24 23 23 22 21 20 19
9 9 9 11 11 11 11 10 12 14 13 16 23 26 25 27 29 30 31 32 32 30 29 30 30 31 31 30 29 30 31 31 31 31 31 30 29 30 30 29 28 27 27 29 29 29 28 28 29 29 29 30 28 27 27 26 25 24 24 23 22 21 19
10 11 11 12 13 12 13 12 12 14 15 17 22 25 25 26 28 28 30 32 32 31 29 28 29 30 30 29 28 29 30 31 32 31 31 31 31 32 31 30 30 29 28 28 29 29 29 29 30 30 29 30 29 28 28 27 25 23 24 25 23 21 20
13 14 14 14 15 14 14 14 14 15 16 17 21 24 25 25 26 26 27 29 30 30 29 28 28 29 29 29 27 28 29 28 27 27 27 30 33 33 31 31 32 31 30 30 30 30 29 30 31 30 30 29 28 28 28 27 26 25 27 27 24 22 21
15 14 14 13 14 14 14 15 15 16 17 17 19 22 24 25 25 27 27 28 28 29 29 28 28 28 28 28 27 26 26 25 24 24 25 28 31 31 30 31 31 32 33 32 31 29 29 29 29 29 30 29 28 29 27 26 27 29 30 28 24 22 21
17 14 13 11 12 13 14 15 15 16 18 19 20 23 25 25 26 27 27 28 28 28 29 28 27 28 28 27 26 25 24 23 23 23 25 27 28 28 27 27 27 29 31 31 29 27 26 27 27 27 28 28 28 29 27 26 28 30 31 30 26 23 21
16 13 11 11 10 12 15 17 17 19 20 21 22 25 26 25 26 27 27 27 28 28 28 27 27 27 27 26 25 23 23 22 23 23 24 25 26 27 25 24 23 24 24 24 24 23 23 24 25 26 26 26 27 28 27 26 27 29 31 31 29 26 21
16 15 12 11 10 12 15 16 17 19 21 21 24 28 28 27 27 27 27 27 26 26 27 27 26 26 26 25 23 23 22 23 23 23 23 24 24 25 24 22 23 23 21 21 22 21 21 22 23 24 25 25 26 26 25 23 24 27 30 30 31 30 25
17 17 17 14 11 13 15 15 15 18 21 23 26 27 27 27 26 26 26 26 25 26 26 26 25 25 25 24 23 22 22 23 23 22 22 21 20 22 22 21 22 23 21 21 21 19 19 21 21 23 24 23 23 23 22 20 21 25 28 29 31 33 30
18 18 19 17 11 10 12 14 15 17 20 25 27 26 26 26 25 25 25 25 25 25 25 25 24 24 23 23 22 21 21 22 23 21 21 20 18 19 21 21 21 21 20 19 19 18 19 20 21 21 22 21 21 21 20 19 20 22 25 27 30 31 31
19 20 21 16 8 5 8 14 17 18 21 24 26 26 26 26 25 25 25 25 24 24 24 24 23 22 22 22 21 21 21 21 22 21 21 20 19 19 20 20 20 19 18 17 16 16 18 20 20 20 21 22 22 20 19 19 19 20 22 23 26 28 28
22 22 23 18 12 10 13 17 20 20 22 24 26 27 26 26 26 25 25 25 24 23 24 23 22 21 21 21 21 21 21 21 21 22 22 21 20 19 19 19 19 18 19 18 17 16 17 20 21 21 21 22 22 20 19 17 17 19 20 21 23 25 24
24 24 24 18 14 15 18 21 22 23 25 25 26 27 26 26 26 25 24 24 24 23 23 22 22 21 20 20 20 20 21 21 21 21 21 21 20 17 17 18 18 17 18 19 18 17 17 18 20 20 20 21 21 20 19 18 17 17 18 21 23 24 21
21 22 20 14 13 16 20 22 22 23 25 25 25 27 28 27 27 26 23 23 23 23 22 21 21 21 19 19 19 20 20 20 19 19 20 20 19 17 16 17 17 17 18 18 18 17 17 17 18 18 18 19 20 20 19 19 17 16 17 20 21 22 20
17 17 15 12 14 17 20 21 20 21 23 25 25 27 28 27 26 25 23 22 22 21 20 20 20 19 19 18 19 19 19 18 18 18 18 18 18 17 16 16 16 17 17 17 16 16 16 17 17 16 17 17 18 18 18 17 17 17 18 20 21 22 20
8 10 12 13 15 17 18 19 19 20 21 23 24 25 26 26 24 23 21 20 20 19 19 19 19 19 18 18 18 18 17 16 17 17 17 18 18 17 16 16 16 16 16 15 14 13 13 15 16 16 16 17 18 18 19 21 22 21 21 22 22 22 19
7 8 9 11 15 17 17 16 17 19 20 22 23 23 24 24 22 21 21 19 18 18 19 19 19 18 18 17 17 16 16 15 16 16 16 16 17 17 16 16 16 16 16 14 12 11 13 14 15 15 16 16 18 19 20 22 23 21 21 21 20 19 16
8 8 10 12 15 17 17 14 16 19 20 22 23 22 23 24 23 22 21 19 18 19 20 19 18 18 18 16 16 15 15 15 16 16 15 16 17 17 16 15 15 15 16 15 12 12 14 15 14 14 14 14 16 17 17 17 17 18 20 21 19 17 17
9 9 10 11 14 17 17 15 16 19 21 22 23 23 23 24 23 22 21 19 19 19 19 18 17 17 16 15 15 14 14 14 14 14 14 15 16 16 16 15 14 14 16 16 14 14 15 14 14 14 15 14 14 13 13 14 16 18 19 20 18 18 20
10 10 11 12 14 18 19 19 20 21 22 22 23 23 23 23 25 23 21 19 19 19 18 17 16 16 15 14 14 14 15 15 15 13 13 14 15 15 15 15 14 14 15 16 15 15 13 13 14 15 14 14 13 13 12 13 16 19 19 18 18 19 20
11 12 13 14 16 19 21 22 22 21 21 21 22 22 21 22 23 22 21 20 20 19 19 19 18 16 15 14 13 13 14 15 15 14 13 13 13 13 14 15 14 13 14 14 15 15 14 14 15 14 13 11 11 13 15 14 14 17 19 18 18 20 20
13 14 15 16 18 21 22 20 18 18 19 20 21 22 21 20 19 19 19 19 19 19 20 21 20 18 16 15 14 12 11 11 12 13 13 13 12 12 13 15 14 13 13 15 15 15 16 16 14 12 12 11 10 13 16 14 13 16 21 22 22 24 24
14 14 14 16 19 20 20 18 17 18 18 18 19 20 20 19 18 17 17 17 17 18 19 19 20 19 18 18 16 14 11 10 11 12 13 13 12 11 13 14 14 14 14 13 12 12 14 15 13 11 11 12 13 13 15 14 15 19 22 22 23 25 26
13 14 14 16 18 19 19 18 18 20 20 19 19 20 20 20 19 18 17 16 16 17 17 17 17 18 18 18 17 15 13 11 11 13 13 12 11 11 12 11 11 12 11 7 5 4 4 6 8 8 9 12 14 14 14 14 14 17 19 20 20 23 23
13 13 15 17 19 20 20 20 20 21 20 19 19 19 19 19 18 17 17 17 16 16 17 17 16 16 16 15 15 15 14 13 13 13 14 13 12 12 13 11 9 10 9 6 5 4 2 3 7 9 10 12 14 14 14 14 13 15 18 19 19 19 17
13 14 15 18 18 18 19 20 20 21 20 19 19 18 17 17 16 15 15 16 15 16 16 16 15 15 14 13 14 15 15 15 14 14 14 14 13 12 11 10 10 10 8 6 5 5 5 6 8 9 11 14 15 15 15 13 11 13 16 16 15 13 11
17 17 17 18 17 17 18 18 18 18 18 17 18 17 16 16 14 13 14 14 15 15 15 15 14 14 13 13 15 15 15 15 16 15 14 13 12 12 11 10 9 9 8 6 5 5 6 7 7 9 12 14 14 14 14 12 10 10 12 12 13 13 12
Wind_Direction
183 211 218 212 210 203 195 192 191 192 191 191 192 193 194 194 192 191 191 191 191 192 194 195 196 198 199 201 201 201 202 202 203 206 208 211 211 209 207 204 202 201 199 198 198 200 203 205 203 197 195 195 195 193 190 191 193 193 194 195 199 203 207
188 203 208 210 212 207 198 193 190 191 192 191 191 192 193 193 191 190 190 190 190 191 192 194 195 196 198 200 201 201 202 202 202 204 206 209 210 209 209 207 203 203 204 203 203 203 202 204 204 200 197 195 194 191 187 187 190 191 193 194 199 204 209
196 199 208 213 210 204 198 193 191 191 191 191 191 191 192 190 189 189 189 188 189 190 192 193 193 195 196 197 200 201 201 201 201 202 205 207 207 207 207 206 204 205 205 205 206 202 197 199 201 200 198 195 194 191 187 186 187 191 193 194 201 208 211
204 201 209 214 207 201 198 194 192 192 192 192 191 190 190 188 187 188 188 187 187 188 190 192 191 192 194 195 199 201 200 200 201 202 204 205 205 204 204 203 203 204 205 205 204 197 190 190 194 194 192 193 195 191 189 189 187 189 194 196 204 211 215
210 205 207 209 204 199 198 196 194 193 194 194 191 189 188 187 185 186 187 187 188 190 191 191 192 191 191 194 198 201 199 199 200 201 202 203 202 201 201 202 200 202 204 202 198 192 183 182 186 188 187 191 194 192 192 192 188 189 194 197 202 210 216
206 205 207 207 201 197 197 198 196 195 195 193 190 188 187 186 186 187 188 188 190 192 191 192 192 191 191 194 198 199 197 197 198 199 200 199 199 199 201 202 198 200 204 199 193 188 182 181 185 187 187 188 190 191 192 192 191 192 194 197 200 207 215
195 195 206 208 202 200 198 198 198 196 196 194 190 189 188 187 188 189 190 190 192 192 192 194 194 191 191 195 199 198 195 196 197 198 198 197 197 198 200 200 197 198 200 196 189 185 182 183 186 188 188 189 189 191 191 191 192 192 193 195 198 205 215
191 186 202 206 205 208 202 198 199 196 196 196 192 190 190 188 189 191 192 193 194 195 196 198 196 192 192 194 197 197 195 196 196 196 196 196 195 196 198 199 196 193 193 191 188 186 185 185 187 190 190 190 191 193 195 195 193 192 192 192 195 203 212
196 173 189 201 204 214 210 200 198 196 194 196 194 191 190 190 190 193 194 194 195 198 199 200 197 193 192 193 196 196 194 194 195 194 194 194 195 197 198 198 195 192 191 190 189 189 187 187 189 189 189 191 193 194 198 199 195 193 192 190 193 203 210
193 151 174 195 202 213 211 200 196 196 193 192 193 191 190 191 191 192 194 195 197 199 200 200 198 194 192 194 195 194 193 193 194 194 193 194 196 197 199 199 197 195 193 192 193 192 190 189 188 187 188 191 192 194 198 200 198 196 195 191 192 200 209
149 135 175 191 200 212 208 198 191 191 190 187 191 192 191 191 190 190 193 195 197 200 200 199 197 195 193 195 195 192 192 194 194 194 194 196 197 198 200 201 197 195 196 196 198 197 192 188 186 186 187 189 191 194 198 199 197 197 198 194 193 199 206
142 156 185 184 196 209 207 198 186 185 184 183 189 192 190 190 191 190 192 195 198 199 198 198 197 195 194 195 196 193 192 193 194 196 196 196 198 201 202 201 196 196 198 199 201 198 193 189 187 186 187 188 191 194 197 199 199 200 201 197 194 198 204
145 168 178 181 196 204 205 199 184 183 184 183 188 191 189 191 194 192 190 194 198 197 196 196 196 197 195 195 196 194 192 193 193 194 195 194 198 202 203 201 200 202 203 202 203 199 195 192 188 186 188 189 192 195 196 198 202 205 206 200 194 198 204
157 176 173 182 194 195 200 200 186 184 185 183 186 187 187 190 194 194 192 193 196 196 196 194 195 197 196 194 195 194 193 194 193 193 194 193 196 200 201 203 206 208 207 205 205 202 197 192 188 187 189 190 191 192 193 197 202 206 208 203 197 198 203
187 189 180 186 193 192 195 194 186 183 183 182 183 184 186 189 191 193 193 192 194 197 196 192 192 195 195 193 193 193 193 194 193 192 190 190 194 198 199 201 205 209 210 207 206 205 199 194 190 187 187 188 190 192 194 198 202 206 208 205 200 199 203
218 208 194 188 189 192 194 191 187 183 181 183 184 183 185 187 187 189 189 189 192 195 194 190 188 191 193 192 192 191 191 191 189 187 186 189 195 198 197 199 202 207 209 205 203 203 199 195 194 190 186 186 189 191 195 200 204 208 210 207 202 201 202
238 229 213 203 195 189 188 190 188 183 182 186 186 184 184 184 185 187 187 188 190 192 192 189 185 187 189 190 189 188 186 183 182 184 185 189 194 197 197 199 201 205 204 199 197 200 198 196 195 191 187 186 188 191 195 200 205 210 211 208 205 204 204
250 243 223 213 206 190 185 188 190 189 188 186 186 185 184 182 182 184 187 188 188 188 189 186 183 183 186 186 185 182 179 177 177 180 183 185 191 195 196 198 198 198 196 193 195 197 196 195 194 190 188 189 191 194 197 201 206 211 212 210 208 206 207
251 254 242 224 204 188 188 192 193 195 191 186 186 187 184 182 181 182 185 184 184 185 186 184 180 180 182 182 180 177 174 174 174 178 181 184 189 194 196 198 198 196 192 192 195 196 194 192 191 190 190 191 192 195 199 203 209 214 216 215 212 210 211
238 246 250 244 215 190 191 196 197 197 193 188 187 185 184 182 180 181 181 180 181 183 184 181 177 176 179 179 177 174 172 173 177 180 181 183 188 194 197 200 200 198 195 195 196 197 193 192 191 190 190 190 189 194 200 205 212 219 221 220 218 216 218
230 234 243 249 232 195 191 194 195 195 192 189 185 180 181 182 179 179 179 178 179 180 180 177 174 175 177 177 177 175 173 177 181 181 184 188 191 195 201 205 205 201 199 199 200 199 196 196 195 192 189 189 189 193 202 209 216 222 224 224 223 222 221
225 228 238 240 223 196 199 196 195 193 188 186 182 177 180 181 177 176 177 176 175 176 176 175 174 174 175 176 178 178 176 178 180 181 187 193 196 198 204 210 212 209 206 205 203 200 198 199 198 194 193 192 191 196 204 213 219 220 219 221 223 222 220
228 229 238 230 198 195 206 198 193 188 182 183 181 176 177 178 174 173 173 171 171 171 173 174 174 174 174 175 177 178 177 178 178 180 185 191 193 196 203 209 215 216 214 212 208 202 200 200 199 197 195 193 193 197 204 214 221 219 215 216 218 216 214
229 229 234 223 190 186 193 190 187 181 177 183 182 174 172 173 170 168 169 168 168 169 170 172 174 174 173 174 175 175 175 176 176 178 181 185 189 193 198 205 211 213 213 214 215 213 208 205 204 200 196 197 198 200 207 215 219 216 212 211 212 212 208
227 228 228 213 183 178 180 178 178 175 175 181 180 171 170 170 166 164 166 166 166 168 169 171 173 173 172 173 172 171 171 172 172 174 176 181 188 193 195 198 204 209 210 211 217 221 219 216 212 202 194 196 201 204 209 214 215 213 209 206 208 212 208
226 226 219 197 179 174 169 167 170 173 177 180 176 169 168 167 162 160 162 164 164 166 167 168 169 170 169 168 166 165 166 166 167 170 172 177 185 191 193 195 200 207 208 209 215 220 219 219 218 206 193 192 199 206 212 217 221 222 216 212 216 216 207
208 211 204 184 169 163 161 163 168 173 175 172 168 166 165 162 156 154 156 159 159 160 161 160 161 163 162 161 159 158 159 160 163 166 169 173 181 187 191 194 199 202 203 206 212 214 212 216 222 220 211 207 213 221 226 231 236 236 228 221 216 209 201
168 182 178 157 147 150 156 160 164 168 168 163 162 163 160 153 146 144 148 150 149 149 150 149 151 153 153 152 151 151 153 156 161 165 167 172 180 185 186 189 194 195 194 196 202 203 205 213 223 226 221 216 220 226 231 235 238 232 219 209 203 199 199
157 147 139 134 138 150 156 155 158 162 161 156 155 154 148 141 135 134 135 134 132 134 135 137 141 143 143 144 144 146 151 154 156 161 164 170 178 183 183 185 187 183 179 181 190 198 202 210 218 221 219 215 214 217 220 224 225 214 200 196 197 200 200
137 137 142 145 147 151 151 148 148 147 145 145 145 142 136 130 124 120 119 119 120 124 127 129 133 134 136 138 140 143 148 151 155 161 165 170 176 178 179 182 182 173 167 173 189 200 203 206 209 212 216 214 207 202 199 199 200 196 193 195 195 193 196
141 146 147 145 141 142 143 141 138 135 134 133 130 126 123 120 116 114 115 118 122 124 125 127 129 130 133 136 141 148 154 155 157 162 166 172 175 171 169 174 175 167 163 172 189 202 207 208 206 209 214 212 203 192 182 181 186 187 189 194 194 190 194
131 131 131 131 129 130 131 130 126 121 117 113 110 110 112 115 116 118 122 126 130 130 131 132 131 130 132 134 141 154 160 157 157 161 163 166 166 164 167 171 170 165 168 180 193 203 210 212 211 214 215 205 190 180 174 171 179 186 186 185 187 189 192
108 109 113 116 116 117 117 115 112 108 103 102 103 105 109 111 113 117 125 131 134 134 134 134 133 133 137 139 145 156 163 159 156 158 159 156 157 163 168 167 165 164 175 190 200 207 212 213 212 213 207 190 171 167 167 165 171 185 187 184 185 191 193
90 94 100 104 107 110 109 107 106 103 101 101 104 107 110 112 113 117 123 128 131 133 133 135 138 141 142 142 145 150 154 156 157 158 156 152 154 160 161 162 168 172 179 194 207 212 218 220 217 210 195 176 166 166 170 174 180 187 190 188 189 194 195
77 79 83 87 92 96 98 100 102 101 102 105 108 111 114 116 121 128 130 131 134 134 133 136 141 142 140 141 143 143 146 157 164 160 152 142 132 128 131 145 166 172 170 174 182 193 221 222 204 191 172 161 163 170 177 183 189 193 193 193 193 193 192
80 79 78 80 84 86 88 91 94 95 97 100 103 106 111 116 124 130 130 131 134 134 134 140 145 142 139 141 142 141 148 163 166 159 155 151 140 127 119 119 135 147 145 140 142 150 155 150 158 168 170 167 169 177 182 187 195 200 199 197 196 193 187
77 80 79 79 80 82 82 84 87 89 92 95 98 101 104 107 112 116 119 125 132 135 139 145 145 142 143 142 139 144 156 162 159 157 157 157 156 150 135 120 113 117 122 130 140 146 145 142 145 155 164 165 166 171 176 181 191 202 202 198 195 189 184
65 69 73 73 73 74 76 77 79 82 86 91 95 97 98 99 101 106 115 122 128 134 142 147 146 147 150 139 134 146 157 153 152 157 155 149 152 160 159 150 128 106 104 118 140 148 148 144 140 138 142 145 150 160 171 177 187 198 201 200 197 190 185